Location: Unspecified
(0.0000°N, 0.0000°E)
Time: 19:21:57
(UTC+00:00)

Vanguard 1 Rocket - Pass Details

Date: 15 December 2017
Orbit: 653 x 4224 km, 34.3° (Epoch: 18 June)

Event Time Altitude Azimuth Distance (km) Brightness Sun altitude
Rises 02:38:53 0° 290° (WNW) 8,436 - -43.9°
Reaches altitude 10° 02:45:23 10° 285° (WNW) 7,420 - -42.6°
Exits shadow 03:01:52 38° 252° (WSW) 4,927 10.7 -39.1°
Maximum altitude 03:08:25 43° 220° (SW) 4,257 10.5 -37.6°
Drops below altitude 10° 03:23:18 10° 151° (SSE) 4,921 11.7 -34.4°
Sets 03:26:39 0° 144° (SE) 5,513 12.3 -33.7°
